Regional Weather Roundup
Issued by NWS

Home | Current Version | Previous Version | Text Only | Print | Product List | Glossary On
Versions: 1 2 3 4 5 6 7 8 9 10 11 12 13 14 15 16 17 18 19 20 21 22 23 24 25 26 27 28 29 30 31 32 33 34 35 36 37 38 39 40 41 42 43 44 45 46 47 48 49 50
009
ASUS44 KJAN 260103
RWRMS

MISSISSIPPI HOURLY WEATHER ROUNDUP
NATIONAL WEATHER SERVICE JACKSON MS
700 PM CST TUE NOV 25 2014

NOTE: "FAIR: INDICATES FEW OR NO CLOUDS BELOW 12,000 FEET WITH NO
SIGNIFICANT WEATHER AND/OR OBSTRUCTIONS TO VISIBILITY.

MSZ001>002-007>008-010>013-018>021-025>028-034>036-260200-
NORTHWEST MISSISSIPPI

CITY           SKY/WX    TMP DP  RH WIND       PRES   REMARKS
CLARKSDALE     FAIR      41  30  65 CALM      30.22R
CLEVELAND      FAIR      40  32  73 CALM      30.21S
GREENWOOD      PTCLDY    36  28  73 CALM      30.21S
GREENVILLE     CLEAR     40  32  73 W3        30.21R
GRENADA        FAIR      34  30  86 CALM      30.22R
OLIVE BRANCH   MOCLDY    39  30  70 CALM      30.20R
OXFORD         FAIR      32  28  86 CALM      30.21R
TUNICA         CLEAR     37  32  81 CALM      30.22R
$$

MSZ003>006-009-014>017-022>024-029>033-037>039-260200-
NORTHEAST MISSISSIPPI

CITY           SKY/WX    TMP DP  RH WIND       PRES   REMARKS
COLUMBUS AFB   CLOUDY    45  31  58 W7        30.18R
CORINTH        FAIR      43  27  52 NW5       30.17F
STARKVILLE     FAIR      43  32  65 CALM      30.18S
TUPELO         CLOUDY    45  25  45 N5        30.17S
$$

MSZ040-058-260200-
CENTRAL MISSISSIPPI

CITY           SKY/WX    TMP DP  RH WIND       PRES   REMARKS
JACKSON INTL   CLOUDY    46  27  47 NW5       30.21R
JACKSON HAWKNS MOCLDY    44  28  53 NW3       30.22R
MERIDIAN KEY   CLOUDY    47  28  47 N7        30.18R
MERIDIAN NAS   CLOUDY    47  28  47 NW7       30.18R
RAYMOND        FAIR      39  36  87 MISG      30.22R
VICKSBURG      CLEAR     35  30  82 NW3       30.24R
$$

MSZ059>079-260200-
SOUTH MISSISSIPPI

CITY           SKY/WX    TMP DP  RH WIND       PRES   REMARKS
BROOKHAVEN     FAIR      45  32  61 CALM      30.22R
COLUMBIA       FAIR      46  34  61 MISG        N/A
HATTIESBURG    CLOUDY    50  30  46 NW8       30.19R
MCCOMB         CLOUDY    46  31  55 NW7       30.21R
NATCHEZ        CLEAR     39  30  70 CALM      30.23R
PINE BELT      CLOUDY    48  27  43 NW6       30.20R
$$

MSZ080>082-260200-
COASTAL MISSISSIPPI

CITY           SKY/WX    TMP DP  RH WIND       PRES   REMARKS
BAY ST LOUIS   PTCLDY    50  34  53 NW3       30.21R
BILOXI         CLOUDY    53  36  52 N7        30.15F
PASCAGOULA     CLOUDY    53  35  50 NW6       30.16R
GULFPORT       CLOUDY    52  35  52 NW7       30.16R
$$



USA.gov is the U.S. government's official web portal to all federal, state and local government web resources and services.